Location: Newark
(35.8833°N, 14.5000°E)
Time: 07:33:24
(UTC+00:00)

BEESAT - Pass Details

Date: 21 November 2019
Orbit: 700 x 709 km, 98.6° (Epoch: 09 December)

Event Time Altitude Azimuth Distance (km) Brightness Sun altitude
Rises 05:09:28 0° 219° (SW) 3,076 ? -7.3°
Reaches altitude 10° 05:14:32 10° 266° (W) 2,165 ? -6.3°
Maximum altitude 05:14:44 10° 269° (W) 2,163 ? -6.3°
Drops below altitude 10° 05:14:55 10° 271° (W) 2,165 ? -6.2°
Enters shadow 05:17:36 - 301° (WNW) 2,472 ? -5.7°
